When you browse on this site, cookies collect data to enhance your experience and personalize the content and advertising you see.
Visit our Privacy Policy to learn more. By continuing to use the site, you agree to this use of cookies and data.
  • In Romania
  • List of Countries
  • For 7 days
  • Water Temperature
  • Weather Map
  • Weather Widgets
  • user-avatar
    Login

    Hourly Weather Al-Basra

    Today, 22 February, Saturday

    Time Temperature Precipitation Wind Pressure Humidity
    00:00 +19°C° 0 mm 3 mps 760 mmHg 41%
    01:00 +19°C° 0 mm 3 mps 760 mmHg 41%
    02:00 +18°C° 0 mm 2 mps 759 mmHg 41%
    03:00 +18°C° 0 mm 2 mps 759 mmHg 41%
    04:00 +18°C° 0 mm 1 mps 759 mmHg 44%
    05:00 +16°C° 0 mm 1 mps 759 mmHg 46%
    06:00 +15°C° 0 mm 0 mps 760 mmHg 48%
    07:00 +18°C° 0 mm 1 mps 760 mmHg 43%
    08:00 +19°C° 0 mm 2 mps 761 mmHg 39%
    09:00 +21°C° 0 mm 2 mps 761 mmHg 34%
    10:00 +22°C° 0 mm 3 mps 761 mmHg 31%
    11:00 +24°C° 0 mm 3 mps 761 mmHg 29%
    12:00 +25°C° 0 mm 4 mps 761 mmHg 26%
    13:00 +26°C° 0 mm 3 mps 761 mmHg 25%
    14:00 +26°C° 0 mm 3 mps 760 mmHg 23%
    15:00 +27°C° 0 mm 3 mps 760 mmHg 22%
    16:00 +26°C° 0 mm 3 mps 760 mmHg 24%
    17:00 +25°C° 0 mm 3 mps 760 mmHg 26%
    18:00 +25°C° 0 mm 4 mps 760 mmHg 28%
    19:00 +23°C° 0 mm 4 mps 760 mmHg 31%
    20:00 +22°C° 0 mm 5 mps 760 mmHg 34%
    21:00 +21°C° 0 mm 5 mps 760 mmHg 37%
    22:00 +20°C° 0 mm 5 mps 760 mmHg 39%
    23:00 +20°C° 0 mm 5 mps 760 mmHg 42%

    Tomorrow, 23 February, Sunday

    Time Temperature Precipitation Wind Pressure Humidity
    00:00 +19°C° 0 mm 4 mps 760 mmHg 45%
    01:00 +18°C° 0 mm 4 mps 760 mmHg 50%
    02:00 +18°C° 0 mm 3 mps 760 mmHg 54%
    03:00 +17°C° 0 mm 2 mps 760 mmHg 59%
    04:00 +17°C° 0 mm 2 mps 760 mmHg 61%
    05:00 +17°C° 0 mm 2 mps 760 mmHg 63%
    06:00 +16°C° 0 mm 1 mps 760 mmHg 65%
    07:00 +17°C° 0 mm 2 mps 760 mmHg 61%
    08:00 +19°C° 0 mm 2 mps 761 mmHg 56%
    09:00 +20°C° 0 mm 2 mps 761 mmHg 52%
    10:00 +22°C° 0 mm 3 mps 761 mmHg 44%
    11:00 +24°C° 0 mm 3 mps 761 mmHg 36%
    12:00 +26°C° 0 mm 3 mps 760 mmHg 28%
    13:00 +27°C° 0 mm 3 mps 760 mmHg 26%
    14:00 +28°C° 0 mm 3 mps 759 mmHg 23%
    15:00 +29°C° 0 mm 3 mps 758 mmHg 21%
    16:00 +28°C° 0 mm 4 mps 758 mmHg 22%
    17:00 +27°C° 0 mm 4 mps 758 mmHg 24%
    18:00 +26°C° 0 mm 4 mps 758 mmHg 25%
    19:00 +25°C° 0 mm 4 mps 758 mmHg 27%
    20:00 +23°C° 0 mm 4 mps 758 mmHg 28%
    21:00 +22°C° 0 mm 4 mps 758 mmHg 30%
    22:00 +22°C° 0 mm 3 mps 758 mmHg 31%
    23:00 +21°C° 0 mm 3 mps 758 mmHg 32%

    Day after tomorrow, 24 February, Monday

    Time Temperature Precipitation Wind Pressure Humidity
    00:00 +21°C° 0 mm 3 mps 758 mmHg 33%
    01:00 +20°C° 0 mm 3 mps 758 mmHg 35%
    02:00 +20°C° 0 mm 2 mps 758 mmHg 37%
    03:00 +20°C° 0 mm 2 mps 757 mmHg 39%
    04:00 +20°C° 0 mm 2 mps 757 mmHg 41%
    05:00 +19°C° 0 mm 3 mps 757 mmHg 43%
    06:00 +19°C° 0 mm 3 mps 757 mmHg 44%
    07:00 +20°C° 0 mm 4 mps 758 mmHg 42%
    08:00 +21°C° 0 mm 5 mps 758 mmHg 41%
    09:00 +22°C° 0 mm 5 mps 758 mmHg 39%
    10:00 +24°C° 0 mm 6 mps 758 mmHg 39%
    11:00 +26°C° 0 mm 6 mps 757 mmHg 38%
    12:00 +28°C° 0 mm 7 mps 757 mmHg 38%
    13:00 +28°C° 0 mm 7 mps 756 mmHg 39%
    14:00 +28°C° 0 mm 7 mps 755 mmHg 41%
    15:00 +29°C° 0 mm 7 mps 754 mmHg 42%
    16:00 +28°C° 0.1 mm 7 mps 754 mmHg 46%
    17:00 +27°C° 0.1 mm 7 mps 754 mmHg 50%
    18:00 +26°C° 0.1 mm 8 mps 754 mmHg 54%
    19:00 +24°C° 0.3 mm 7 mps 754 mmHg 57%
    20:00 +23°C° 0.3 mm 7 mps 754 mmHg 59%
    21:00 +23°C° 0.3 mm 7 mps 754 mmHg 62%
    22:00 +22°C° 0 mm 5 mps 754 mmHg 62%
    23:00 +22°C° 0 mm 4 mps 754 mmHg 62%

    25 February, Tuesday

    Time Temperature Precipitation Wind Pressure Humidity
    00:00 +22°C° 0 mm 3 mps 753 mmHg 63%
    01:00 +22°C° 0 mm 5 mps 753 mmHg 63%
    02:00 +22°C° 0 mm 6 mps 752 mmHg 64%
    03:00 +22°C° 0 mm 8 mps 751 mmHg 64%
    04:00 +22°C° 0 mm 9 mps 751 mmHg 66%
    05:00 +22°C° 0 mm 9 mps 750 mmHg 68%
    06:00 +22°C° 0 mm 9 mps 750 mmHg 69%
    07:00 +23°C° 0 mm 10 mps 749 mmHg 63%
    08:00 +24°C° 0 mm 10 mps 749 mmHg 56%
    09:00 +26°C° 0 mm 11 mps 749 mmHg 49%
    10:00 +28°C° 0 mm 11 mps 749 mmHg 43%
    11:00 +31°C° 0 mm 10 mps 748 mmHg 37%
    12:00 +33°C° 0 mm 10 mps 748 mmHg 30%
    13:00 +31°C° 0 mm 11 mps 748 mmHg 28%
    14:00 +29°C° 0 mm 12 mps 748 mmHg 25%
    15:00 +28°C° 0 mm 12 mps 748 mmHg 22%
    16:00 +27°C° 0 mm 12 mps 749 mmHg 21%
    17:00 +24°C° 0 mm 12 mps 749 mmHg 20%
    18:00 +23°C° 0 mm 13 mps 750 mmHg 18%
    19:00 +22°C° 0 mm 12 mps 751 mmHg 25%
    20:00 +19°C° 0 mm 12 mps 752 mmHg 32%
    21:00 +18°C° 0 mm 11 mps 753 mmHg 38%
    22:00 +17°C° 0 mm 10 mps 753 mmHg 46%
    23:00 +16°C° 0 mm 8 mps 754 mmHg 54%

    26 February, Wednesday

    Time Temperature Precipitation Wind Pressure Humidity
    00:00 +15°C° 0 mm 6 mps 754 mmHg 62%
    01:00 +14°C° 0 mm 5 mps 755 mmHg 62%
    02:00 +14°C° 0 mm 4 mps 755 mmHg 62%
    03:00 +14°C° 0 mm 3 mps 756 mmHg 62%
    04:00 +14°C° 0 mm 4 mps 756 mmHg 60%
    05:00 +14°C° 0 mm 4 mps 757 mmHg 59%
    06:00 +14°C° 0 mm 5 mps 758 mmHg 57%
    07:00 +14°C° 0 mm 5 mps 759 mmHg 46%
    08:00 +14°C° 0 mm 5 mps 760 mmHg 35%
    09:00 +14°C° 0 mm 6 mps 761 mmHg 24%
    10:00 +15°C° 0 mm 6 mps 761 mmHg 22%
    11:00 +16°C° 0 mm 5 mps 761 mmHg 20%
    12:00 +17°C° 0 mm 5 mps 761 mmHg 18%
    13:00 +17°C° 0 mm 5 mps 761 mmHg 18%
    14:00 +17°C° 0 mm 5 mps 760 mmHg 18%
    15:00 +19°C° 0 mm 5 mps 760 mmHg 17%
    16:00 +17°C° 0 mm 5 mps 760 mmHg 18%
    17:00 +18°C° 0 mm 4 mps 760 mmHg 19%
    18:00 +17°C° 0 mm 3 mps 761 mmHg 20%
    19:00 +17°C° 0 mm 3 mps 761 mmHg 22%
    20:00 +17°C° 0 mm 3 mps 761 mmHg 23%
    21:00 +16°C° 0 mm 3 mps 762 mmHg 25%
    22:00 +16°C° 0 mm 3 mps 762 mmHg 28%
    23:00 +14°C° 0 mm 3 mps 762 mmHg 30%

    27 February, Thursday

    Time Temperature Precipitation Wind Pressure Humidity
    00:00 +14°C° 0 mm 3 mps 762 mmHg 33%
    01:00 +13°C° 0 mm 3 mps 762 mmHg 34%
    02:00 +13°C° 0 mm 3 mps 761 mmHg 36%
    03:00 +12°C° 0 mm 3 mps 761 mmHg 38%
    04:00 +12°C° 0 mm 3 mps 761 mmHg 39%
    05:00 +12°C° 0 mm 3 mps 761 mmHg 41%
    06:00 +11°C° 0 mm 3 mps 761 mmHg 43%
    07:00 +12°C° 0 mm 4 mps 762 mmHg 40%
    08:00 +14°C° 0 mm 4 mps 762 mmHg 37%
    09:00 +15°C° 0 mm 5 mps 763 mmHg 33%
    10:00 +16°C° 0 mm 5 mps 762 mmHg 30%
    11:00 +17°C° 0 mm 5 mps 762 mmHg 27%
    12:00 +20°C° 0 mm 5 mps 762 mmHg 24%
    13:00 +20°C° 0 mm 5 mps 761 mmHg 23%
    14:00 +21°C° 0 mm 5 mps 761 mmHg 22%
    15:00 +22°C° 0 mm 5 mps 760 mmHg 21%
    16:00 +21°C° 0 mm 4 mps 760 mmHg 22%
    17:00 +20°C° 0 mm 4 mps 760 mmHg 23%
    18:00 +20°C° 0 mm 3 mps 760 mmHg 24%
    19:00 +19°C° 0 mm 3 mps 760 mmHg 23%
    20:00 +19°C° 0 mm 3 mps 760 mmHg 23%
    21:00 +18°C° 0 mm 4 mps 760 mmHg 23%
    22:00 +17°C° 0 mm 4 mps 760 mmHg 24%
    23:00 +17°C° 0 mm 4 mps 760 mmHg 26%
    Show more